Time,TemperatureF,DewpointF,PressureIn,WindDirection,WindDirectionDegrees,WindSpeedMPH,WindSpeedGustMPH,Humidity,HourlyPrecipIn,Conditions,Clouds,dailyrainin,SoftwareType,DateUTC
2013-09-03 06:23:00,76.8,61.4,29.35,NNW,333,3.1,3.1,59,0.00,,---,0.00,VWS V13.01,2013-09-03 11:23:00,
2013-09-03 06:28:00,76.8,61.4,29.35,NW,318,0.0,3.6,59,0.00,,---,0.00,VWS V13.01,2013-09-03 11:28:00,
2013-09-03 06:33:00,76.8,61.4,29.35,NNW,344,0.0,0.0,59,0.00,,---,0.00,VWS V13.01,2013-09-03 11:33:00,
2013-09-03 06:38:00,76.6,61.2,29.35,NNW,346,0.0,2.7,59,0.00,,---,0.00,VWS V13.01,2013-09-03 11:38:00,
2013-09-03 06:43:00,76.6,61.2,29.38,NNW,346,0.0,0.0,59,0.00,,---,0.00,VWS V13.01,2013-09-03 11:43:00,
2013-09-03 06:48:00,76.6,61.7,29.38,NNW,345,0.0,0.0,60,0.00,,---,0.00,VWS V13.01,2013-09-03 11:48:00,
2013-09-03 06:53:00,76.6,61.7,29.38,NNW,346,3.1,3.1,60,0.00,,---,0.00,VWS V13.01,2013-09-03 11:53:00,
2013-09-03 06:58:00,76.5,61.6,29.38,NNW,329,2.2,2.2,60,0.00,,---,0.00,VWS V13.01,2013-09-03 11:58:00,
2013-09-03 07:03:00,76.5,62.0,29.38,North,351,3.6,3.6,61,0.00,,---,0.00,VWS V13.01,2013-09-03 12:03:00,
2013-09-03 07:08:00,76.3,61.4,29.38,North,4,2.7,3.6,60,0.00,,---,0.00,VWS V13.01,2013-09-03 12:08:00,
2013-09-03 07:13:00,76.3,61.4,29.38,North,352,3.1,4.0,60,0.00,,---,0.00,VWS V13.01,2013-09-03 12:13:00,
2013-09-03 07:18:00,76.3,61.9,29.38,NNW,337,3.6,3.6,61,0.00,,---,0.00,VWS V13.01,2013-09-03 12:18:00,
2013-09-03 07:23:00,76.3,61.9,29.38,North,11,2.7,4.9,61,0.00,,---,0.00,VWS V13.01,2013-09-03 12:23:00,
2013-09-03 07:28:00,76.1,62.2,29.38,NNE,13,0.0,2.7,62,0.00,,---,0.00,VWS V13.01,2013-09-03 12:28:00,
2013-09-03 07:33:00,76.1,62.2,29.38,NNE,16,3.1,3.1,62,0.00,,---,0.00,VWS V13.01,2013-09-03 12:33:00,
2013-09-03 07:38:00,76.3,61.9,29.38,NNW,345,0.0,0.0,61,0.00,,---,0.00,VWS V13.01,2013-09-03 12:38:00,
2013-09-03 07:43:00,76.3,62.3,29.38,NNW,342,2.7,3.1,62,0.00,,---,0.00,VWS V13.01,2013-09-03 12:43:00,
2013-09-03 07:48:00,76.3,61.9,29.38,NNE,13,0.0,0.0,61,0.00,,---,0.00,VWS V13.01,2013-09-03 12:48:00,
2013-09-03 07:53:00,76.3,61.9,29.38,NW,321,0.0,0.0,61,0.00,,---,0.00,VWS V13.01,2013-09-03 12:53:00,
2013-09-03 07:58:00,76.5,62.5,29.38,North,357,0.0,0.0,62,0.00,,---,0.00,VWS V13.01,2013-09-03 12:58:00,
2013-09-03 08:03:00,76.5,62.9,29.38,North,3,4.0,4.5,63,0.00,,---,0.00,VWS V13.01,2013-09-03 13:03:00,
2013-09-03 08:08:00,76.5,62.0,29.38,North,3,0.0,0.0,61,0.00,,---,0.00,VWS V13.01,2013-09-03 13:08:00,
2013-09-03 08:13:00,76.5,62.0,29.38,NNE,23,5.4,5.4,61,0.00,,---,0.00,VWS V13.01,2013-09-03 13:13:00,
2013-09-03 08:18:00,76.6,63.1,29.38,NW,313,2.7,3.1,63,0.00,,---,0.00,VWS V13.01,2013-09-03 13:18:00,
2013-09-03 08:23:00,76.6,62.7,29.38,North,353,3.1,3.1,62,0.00,,---,0.00,VWS V13.01,2013-09-03 13:23:00,
2013-09-03 08:28:00,76.8,62.8,29.38,NNE,28,3.6,5.4,62,0.00,,---,0.00,VWS V13.01,2013-09-03 13:28:00,
2013-09-03 08:33:00,77.0,63.5,29.38,WNW,297,3.6,5.8,63,0.00,,---,0.00,VWS V13.01,2013-09-03 13:33:00,
2013-09-03 08:38:00,77.2,62.7,29.38,NNW,342,4.9,5.4,61,0.00,,---,0.00,VWS V13.01,2013-09-03 13:38:00,
2013-09-03 08:43:00,77.5,63.5,29.38,North,6,4.0,5.4,62,0.00,,---,0.00,VWS V13.01,2013-09-03 13:43:00,
2013-09-03 08:48:00,77.7,62.7,29.38,ENE,68,2.7,3.6,60,0.00,,---,0.00,VWS V13.01,2013-09-03 13:48:00,
2013-09-03 08:53:00,77.9,62.9,29.38,ENE,58,2.7,3.6,60,0.00,,---,0.00,VWS V13.01,2013-09-03 13:53:00,
2013-09-03 08:58:00,78.1,62.6,29.38,North,8,5.4,5.4,59,0.00,,---,0.00,VWS V13.01,2013-09-03 13:58:00,
2013-09-03 09:03:00,78.4,62.9,29.38,North,357,0.0,3.6,59,0.00,,---,0.00,VWS V13.01,2013-09-03 14:03:00,
2013-09-03 09:08:00,78.6,64.5,29.38,NNW,344,0.0,0.0,62,0.00,,---,0.00,VWS V13.01,2013-09-03 14:08:00,
2013-09-03 09:13:00,78.8,62.3,29.38,North,357,3.1,3.1,57,0.00,,---,0.00,VWS V13.01,2013-09-03 14:13:00,
2013-09-03 09:18:00,79.2,63.1,29.38,ENE,59,0.0,3.6,58,0.00,,---,0.00,VWS V13.01,2013-09-03 14:18:00,
2013-09-03 09:23:00,79.3,62.8,29.38,North,10,4.0,4.0,57,0.00,,---,0.00,VWS V13.01,2013-09-03 14:23:00,
2013-09-03 09:28:00,79.5,62.5,29.41,NNE,32,3.6,4.0,56,0.00,,---,0.00,VWS V13.01,2013-09-03 14:28:00,
2013-09-03 09:33:00,79.5,62.5,29.41,NNE,16,3.6,3.6,56,0.00,,---,0.00,VWS V13.01,2013-09-03 14:33:00,
2013-09-03 09:38:00,79.5,62.5,29.41,NNE,16,3.6,3.6,56,0.00,,---,0.00,VWS V13.01,2013-09-03 14:38:00,
2013-09-03 09:43:00,79.5,62.5,29.41,North,0,2.7,2.7,56,0.00,,---,0.00,VWS V13.01,2013-09-03 14:43:00,
2013-09-03 09:48:00,79.5,62.5,29.41,North,357,0.0,0.0,56,0.00,,---,0.00,VWS V13.01,2013-09-03 14:48:00,
2013-09-03 09:53:00,79.5,62.5,29.41,North,9,2.2,2.2,56,0.00,,---,0.00,VWS V13.01,2013-09-03 14:53:00,
2013-09-03 09:58:00,79.5,62.5,29.41,North,9,2.2,2.2,56,0.00,,---,0.00,VWS V13.01,2013-09-03 14:58:00,
2013-09-03 10:03:00,79.5,62.5,29.41,NNW,339,2.2,2.2,56,0.00,,---,0.00,VWS V13.01,2013-09-03 15:03:00,
2013-09-03 10:08:00,79.5,62.5,29.41,West,281,2.7,2.7,56,0.00,,---,0.00,VWS V13.01,2013-09-03 15:08:00,
2013-09-03 10:13:00,79.5,62.5,29.41,North,10,0.0,0.0,56,0.00,,---,0.00,VWS V13.01,2013-09-03 15:13:00,
2013-09-03 10:18:00,79.5,62.5,29.41,NNW,343,3.1,3.1,56,0.00,,---,0.00,VWS V13.01,2013-09-03 15:18:00,
2013-09-03 10:23:00,79.5,62.5,29.41,NW,315,0.0,0.0,56,0.00,,---,0.00,VWS V13.01,2013-09-03 15:23:00,
2013-09-03 10:28:00,79.5,62.5,29.41,WNW,285,0.0,0.0,56,0.00,,---,0.00,VWS V13.01,2013-09-03 15:28:00,
2013-09-03 10:33:00,79.5,62.5,29.41,WNW,291,0.0,0.0,56,0.00,,---,0.00,VWS V13.01,2013-09-03 15:33:00,
2013-09-03 10:38:00,79.5,62.5,29.41,WNW,287,3.1,3.1,56,0.00,,---,0.00,VWS V13.01,2013-09-03 15:38:00,
2013-09-03 10:43:00,79.5,62.5,29.41,WNW,293,3.1,3.1,56,0.00,,---,0.00,VWS V13.01,2013-09-03 15:43:00,
2013-09-03 10:48:00,79.5,62.5,29.41,WNW,286,7.2,7.2,56,0.00,,---,0.00,VWS V13.01,2013-09-03 15:48:00,
2013-09-03 10:53:00,79.5,62.5,29.41,WNW,286,7.2,7.2,56,0.00,,---,0.00,VWS V13.01,2013-09-03 15:53:00,
2013-09-03 10:58:00,79.5,62.5,29.41,NW,313,0.0,0.0,56,0.00,,---,0.00,VWS V13.01,2013-09-03 15:58:00,
2013-09-03 11:03:00,79.5,62.5,29.41,NW,313,0.0,0.0,56,0.00,,---,0.00,VWS V13.01,2013-09-03 16:03:00,
2013-09-03 11:08:00,79.5,62.5,29.41,WNW,283,2.7,2.7,56,0.00,,---,0.00,VWS V13.01,2013-09-03 16:08:00,
2013-09-03 11:13:00,79.5,62.5,29.41,NNW,327,2.7,2.7,56,0.00,,---,0.00,VWS V13.01,2013-09-03 16:13:00,
2013-09-03 11:18:00,79.5,62.5,29.41,NNW,327,2.7,2.7,56,0.00,,---,0.00,VWS V13.01,2013-09-03 16:18:00,
2013-09-03 11:23:00,79.5,62.5,29.41,NNE,23,0.0,0.0,56,0.00,,---,0.00,VWS V13.01,2013-09-03 16:23:00,
2013-09-03 11:28:00,79.5,62.5,29.41,NNE,23,0.0,0.0,56,0.00,,---,0.00,VWS V13.01,2013-09-03 16:28:00,
2013-09-03 11:33:00,79.5,62.5,29.41,West,279,0.0,0.0,56,0.00,,---,0.00,VWS V13.01,2013-09-03 16:33:00,
2013-09-03 11:38:00,92.5,62.4,29.41,West,279,0.0,0.0,37,0.00,,---,0.00,VWS V13.01,2013-09-03 16:38:00,
2013-09-03 11:43:00,92.5,62.4,29.41,WNW,293,3.6,3.6,37,0.00,,---,0.00,VWS V13.01,2013-09-03 16:43:00,
2013-09-03 11:48:00,92.5,62.4,29.41,WNW,293,3.6,3.6,37,0.00,,---,0.00,VWS V13.01,2013-09-03 16:48:00,
2013-09-03 11:53:00,93.4,63.2,29.41,NNE,18,3.6,3.6,37,0.00,,---,0.00,VWS V13.01,2013-09-03 16:53:00,
2013-09-03 11:58:00,93.4,63.2,29.41,NNE,18,3.6,3.6,37,0.00,,---,0.00,VWS V13.01,2013-09-03 16:58:00,
2013-09-03 12:03:00,93.4,63.2,29.41,WNW,286,0.0,0.0,37,0.00,,---,0.00,VWS V13.01,2013-09-03 17:03:00,
2013-09-03 12:08:00,93.4,63.2,29.41,WNW,286,0.0,0.0,37,0.00,,---,0.00,VWS V13.01,2013-09-03 17:08:00,
2013-09-03 12:13:00,93.4,63.2,29.41,WNW,286,0.0,0.0,37,0.00,,---,0.00,VWS V13.01,2013-09-03 17:13:00,
2013-09-03 12:18:00,93.4,63.2,29.41,WNW,286,0.0,0.0,37,0.00,,---,0.00,VWS V13.01,2013-09-03 17:18:00,
2013-09-03 12:23:00,93.4,63.2,29.41,WNW,286,0.0,0.0,37,0.00,,---,0.00,VWS V13.01,2013-09-03 17:23:00,
2013-09-03 12:28:00,93.4,63.2,29.41,WNW,286,0.0,0.0,37,0.00,,---,0.00,VWS V13.01,2013-09-03 17:28:00,
2013-09-03 12:33:00,93.4,63.2,29.41,WNW,286,0.0,0.0,37,0.00,,---,0.00,VWS V13.01,2013-09-03 17:33:00,
2013-09-03 12:38:00,93.4,63.2,29.41,WNW,286,0.0,0.0,37,0.00,,---,0.00,VWS V13.01,2013-09-03 17:38:00,
2013-09-03 12:43:00,93.4,63.2,29.41,WNW,286,0.0,0.0,37,0.00,,---,0.00,VWS V13.01,2013-09-03 17:43:00,
2013-09-03 12:48:00,93.4,63.2,29.38,WNW,286,0.0,0.0,37,0.00,,---,0.00,VWS V13.01,2013-09-03 17:48:00,
2013-09-03 12:53:00,93.4,63.2,29.38,WNW,286,0.0,0.0,37,0.00,,---,0.00,VWS V13.01,2013-09-03 17:53:00,
2013-09-03 12:58:00,93.4,63.2,29.38,WNW,286,0.0,0.0,37,0.00,,---,0.00,VWS V13.01,2013-09-03 17:58:00,
2013-09-03 13:03:00,93.4,63.2,29.38,WNW,286,0.0,0.0,37,0.00,,---,0.00,VWS V13.01,2013-09-03 18:03:00,
2013-09-03 13:08:00,93.4,63.2,29.38,WNW,286,0.0,0.0,37,0.00,,---,0.00,VWS V13.01,2013-09-03 18:08:00,
2013-09-03 13:13:00,93.4,63.2,29.38,WNW,286,0.0,0.0,37,0.00,,---,0.00,VWS V13.01,2013-09-03 18:13:00,
2013-09-03 13:18:00,93.4,63.2,29.38,WNW,286,0.0,0.0,37,0.00,,---,0.00,VWS V13.01,2013-09-03 18:18:00,
2013-09-03 13:23:00,93.4,63.2,29.38,WNW,286,0.0,0.0,37,0.00,,---,0.00,VWS V13.01,2013-09-03 18:23:00,
2013-09-03 13:28:00,93.4,63.2,29.38,WNW,286,0.0,0.0,37,0.00,,---,0.00,VWS V13.01,2013-09-03 18:28:00,
2013-09-03 13:33:00,93.4,63.2,29.38,WNW,286,0.0,0.0,37,0.00,,---,0.00,VWS V13.01,2013-09-03 18:33:00,
2013-09-03 13:38:00,93.4,63.2,29.38,WNW,286,0.0,0.0,37,0.00,,---,0.00,VWS V13.01,2013-09-03 18:38:00,
2013-09-03 13:43:00,93.4,63.2,29.38,WNW,286,0.0,0.0,37,0.00,,---,0.00,VWS V13.01,2013-09-03 18:43:00,
2013-09-03 13:48:00,93.4,63.2,29.38,WNW,286,0.0,0.0,37,0.00,,---,0.00,VWS V13.01,2013-09-03 18:48:00,
2013-09-03 13:53:00,93.4,63.2,29.38,WNW,286,0.0,0.0,37,0.00,,---,0.00,VWS V13.01,2013-09-03 18:53:00,
2013-09-03 13:58:00,93.4,63.2,29.38,WNW,286,0.0,0.0,37,0.00,,---,0.00,VWS V13.01,2013-09-03 18:58:00,
2013-09-03 14:03:00,93.4,63.2,29.38,WNW,286,0.0,0.0,37,0.00,,---,0.00,VWS V13.01,2013-09-03 19:03:00,
2013-09-03 14:08:00,93.4,63.2,29.35,WNW,286,0.0,0.0,37,0.00,,---,0.00,VWS V13.01,2013-09-03 19:08:00,
2013-09-03 14:13:00,93.4,63.2,29.35,WNW,286,0.0,0.0,37,0.00,,---,0.00,VWS V13.01,2013-09-03 19:13:00,
2013-09-03 14:18:00,93.4,63.2,29.35,WNW,286,0.0,0.0,37,0.00,,---,0.00,VWS V13.01,2013-09-03 19:18:00,
2013-09-03 14:23:00,93.4,63.2,29.35,WNW,286,0.0,0.0,37,0.00,,---,0.00,VWS V13.01,2013-09-03 19:23:00,
2013-09-03 14:28:00,93.4,63.2,29.35,WNW,287,3.6,3.6,37,0.00,,---,0.00,VWS V13.01,2013-09-03 19:28:00,
2013-09-03 14:33:00,93.4,63.2,29.35,WNW,287,3.6,3.6,37,0.00,,---,0.00,VWS V13.01,2013-09-03 19:33:00,
2013-09-03 14:38:00,93.4,63.2,29.35,WNW,287,3.6,3.6,37,0.00,,---,0.00,VWS V13.01,2013-09-03 19:38:00,
2013-09-03 14:43:00,93.4,63.2,29.35,WNW,287,3.6,3.6,37,0.00,,---,0.00,VWS V13.01,2013-09-03 19:43:00,
2013-09-03 14:48:00,93.7,62.0,29.35,WNW,287,3.6,3.6,35,0.00,,---,0.00,VWS V13.01,2013-09-03 19:48:00,
2013-09-03 14:53:00,93.7,62.0,29.35,WNW,287,3.6,3.6,35,0.00,,---,0.00,VWS V13.01,2013-09-03 19:53:00,
2013-09-03 14:58:00,93.7,62.0,29.35,WNW,287,3.6,3.6,35,0.00,,---,0.00,VWS V13.01,2013-09-03 19:58:00,
2013-09-03 15:03:00,93.7,62.0,29.35,WNW,287,3.6,3.6,35,0.00,,---,0.00,VWS V13.01,2013-09-03 20:03:00,
2013-09-03 15:08:00,94.1,63.1,29.35,WNW,287,3.6,3.6,36,0.00,,---,0.00,VWS V13.01,2013-09-03 20:08:00,
2013-09-03 15:13:00,94.1,63.1,29.35,WNW,287,3.6,3.6,36,0.00,,---,0.00,VWS V13.01,2013-09-03 20:13:00,
2013-09-03 15:18:00,94.8,62.9,29.35,NW,304,3.6,3.6,35,0.00,,---,0.00,VWS V13.01,2013-09-03 20:18:00,
2013-09-03 15:23:00,94.8,62.9,29.32,WNW,291,5.8,8.7,35,0.00,,---,0.00,VWS V13.01,2013-09-03 20:23:00,
2013-09-03 15:28:00,94.5,62.6,29.32,NW,308,4.0,4.0,35,0.00,,---,0.00,VWS V13.01,2013-09-03 20:28:00,
2013-09-03 15:33:00,94.5,62.6,29.32,WNW,283,2.2,2.2,35,0.00,,---,0.00,VWS V13.01,2013-09-03 20:33:00,
2013-09-03 15:38:00,94.5,62.6,29.32,WNW,289,0.0,0.0,35,0.00,,---,0.00,VWS V13.01,2013-09-03 20:38:00,
2013-09-03 15:43:00,94.5,62.6,29.32,WNW,287,4.0,4.0,35,0.00,,---,0.00,VWS V13.01,2013-09-03 20:43:00,
2013-09-03 15:48:00,94.5,62.6,29.32,WSW,239,0.0,0.0,35,0.00,,---,0.00,VWS V13.01,2013-09-03 20:48:00,
2013-09-03 15:53:00,94.5,62.6,29.32,NW,323,3.6,3.6,35,0.00,,---,0.00,VWS V13.01,2013-09-03 20:53:00,
2013-09-03 15:58:00,94.5,62.6,29.32,NNW,341,6.3,6.3,35,0.00,,---,0.00,VWS V13.01,2013-09-03 20:58:00,
2013-09-03 16:03:00,94.5,62.6,29.32,NW,312,3.6,3.6,35,0.00,,---,0.00,VWS V13.01,2013-09-03 21:03:00,
2013-09-03 16:08:00,95.5,61.9,29.32,WNW,302,0.0,0.0,33,0.00,,---,0.00,VWS V13.01,2013-09-03 21:08:00,
2013-09-03 16:13:00,95.5,61.9,29.32,NW,318,3.6,3.6,33,0.00,,---,0.00,VWS V13.01,2013-09-03 21:13:00,
2013-09-03 16:18:00,95.5,61.9,29.32,NW,311,6.7,6.7,33,0.00,,---,0.00,VWS V13.01,2013-09-03 21:18:00,
2013-09-03 16:23:00,95.5,61.9,29.32,WSW,250,2.2,2.2,33,0.00,,---,0.00,VWS V13.01,2013-09-03 21:23:00,
2013-09-03 16:28:00,95.5,61.9,29.32,WNW,300,0.0,0.0,33,0.00,,---,0.00,VWS V13.01,2013-09-03 21:28:00,
2013-09-03 16:33:00,95.5,61.9,29.32,North,4,2.2,2.2,33,0.00,,---,0.00,VWS V13.01,2013-09-03 21:33:00,
2013-09-03 16:38:00,95.5,61.9,29.32,SSW,196,2.7,2.7,33,0.00,,---,0.00,VWS V13.01,2013-09-03 21:38:00,
2013-09-03 16:43:00,95.4,60.0,29.32,SW,218,3.6,3.6,31,0.00,,---,0.00,VWS V13.01,2013-09-03 21:43:00,
2013-09-03 16:48:00,95.4,60.0,29.32,SSW,211,0.0,0.0,31,0.00,,---,0.00,VWS V13.01,2013-09-03 21:48:00,
2013-09-03 16:53:00,95.4,60.0,29.32,North,0,0.0,0.0,31,0.00,,---,0.00,VWS V13.01,2013-09-03 21:53:00,
2013-09-03 16:58:00,95.4,60.0,29.32,West,262,0.0,0.0,31,0.00,,---,0.00,VWS V13.01,2013-09-03 21:58:00,
2013-09-03 17:03:00,95.4,60.0,29.32,WNW,284,8.1,8.1,31,0.00,,---,0.00,VWS V13.01,2013-09-03 22:03:00,
2013-09-03 17:08:00,95.4,60.0,29.32,WNW,298,5.4,5.4,31,0.00,,---,0.00,VWS V13.01,2013-09-03 22:08:00,
2013-09-03 17:13:00,95.4,60.0,29.32,NW,320,3.6,3.6,31,0.00,,---,0.00,VWS V13.01,2013-09-03 22:13:00,
2013-09-03 17:18:00,95.4,60.0,29.32,WSW,239,2.7,2.7,31,0.00,,---,0.00,VWS V13.01,2013-09-03 22:18:00,
2013-09-03 17:23:00,94.8,57.6,29.32,NW,304,0.0,0.0,29,0.00,,---,0.00,VWS V13.01,2013-09-03 22:23:00,
2013-09-03 17:28:00,94.8,57.6,29.32,WNW,289,2.2,2.2,29,0.00,,---,0.00,VWS V13.01,2013-09-03 22:28:00,
2013-09-03 17:33:00,94.8,57.6,29.32,WNW,282,3.6,3.6,29,0.00,,---,0.00,VWS V13.01,2013-09-03 22:33:00,
2013-09-03 17:38:00,94.8,57.6,29.32,West,260,4.0,4.0,29,0.00,,---,0.00,VWS V13.01,2013-09-03 22:38:00,
2013-09-03 17:43:00,94.8,57.6,29.32,WNW,283,0.0,0.0,29,0.00,,---,0.00,VWS V13.01,2013-09-03 22:43:00,
2013-09-03 17:48:00,94.8,57.6,29.32,WNW,291,0.0,0.0,29,0.00,,---,0.00,VWS V13.01,2013-09-03 22:48:00,
2013-09-03 17:53:00,94.5,56.4,29.32,West,277,0.0,0.0,28,0.00,,---,0.00,VWS V13.01,2013-09-03 22:53:00,
2013-09-03 17:58:00,94.5,56.4,29.32,NW,318,4.0,4.0,28,0.00,,---,0.00,VWS V13.01,2013-09-03 22:58:00,
2013-09-03 18:03:00,94.5,56.4,29.32,WNW,288,3.1,3.1,28,0.00,,---,0.00,VWS V13.01,2013-09-03 23:03:00,
2013-09-03 18:08:00,94.5,56.4,29.32,WNW,289,4.9,4.9,28,0.00,,---,0.00,VWS V13.01,2013-09-03 23:08:00,
2013-09-03 18:13:00,93.9,55.9,29.32,NNW,348,3.6,3.6,28,0.00,,---,0.00,VWS V13.01,2013-09-03 23:13:00,
2013-09-03 18:18:00,93.9,55.9,29.32,NNW,348,0.0,0.0,28,0.00,,---,0.00,VWS V13.01,2013-09-03 23:18:00,
2013-09-03 18:23:00,93.6,55.6,29.32,West,280,3.1,3.1,28,0.00,,---,0.00,VWS V13.01,2013-09-03 23:23:00,
2013-09-03 18:28:00,93.6,55.6,29.32,West,273,0.0,0.0,28,0.00,,---,0.00,VWS V13.01,2013-09-03 23:28:00,
2013-09-03 18:33:00,93.0,56.1,29.32,West,277,0.0,0.0,29,0.00,,---,0.00,VWS V13.01,2013-09-03 23:33:00,
2013-09-03 18:38:00,92.8,55.9,29.32,NW,316,0.0,0.0,29,0.00,,---,0.00,VWS V13.01,2013-09-03 23:38:00,
2013-09-03 18:43:00,92.8,55.9,29.32,NW,307,2.7,2.7,29,0.00,,---,0.00,VWS V13.01,2013-09-03 23:43:00,
2013-09-03 18:48:00,92.8,55.9,29.32,NNW,331,4.0,4.0,29,0.00,,---,0.00,VWS V13.01,2013-09-03 23:48:00,
2013-09-03 18:53:00,92.3,55.5,29.32,North,0,3.6,3.6,29,0.00,,---,0.00,VWS V13.01,2013-09-03 23:53:00,
2013-09-03 18:58:00,92.3,55.5,29.32,WNW,302,0.0,0.0,29,0.00,,---,0.00,VWS V13.01,2013-09-03 23:58:00,
2013-09-03 19:03:00,91.8,55.0,29.32,WNW,293,0.0,0.0,29,0.00,,---,0.00,VWS V13.01,2013-09-04 00:03:00,
2013-09-03 19:08:00,91.8,55.0,29.32,SW,226,0.0,0.0,29,0.00,,---,0.00,VWS V13.01,2013-09-04 00:08:00,
2013-09-03 19:13:00,91.4,54.7,29.32,SW,226,0.0,0.0,29,0.00,,---,0.00,VWS V13.01,2013-09-04 00:13:00,
2013-09-03 19:18:00,91.0,55.3,29.32,WNW,293,0.0,0.0,30,0.00,,---,0.00,VWS V13.01,2013-09-04 00:18:00,
2013-09-03 19:23:00,91.0,55.3,29.32,WNW,293,0.0,0.0,30,0.00,,---,0.00,VWS V13.01,2013-09-04 00:23:00,
2013-09-03 19:28:00,90.9,55.2,29.32,WNW,293,0.0,0.0,30,0.00,,---,0.00,VWS V13.01,2013-09-04 00:28:00,
2013-09-03 19:33:00,90.9,55.2,29.32,WNW,294,0.0,0.0,30,0.00,,---,0.00,VWS V13.01,2013-09-04 00:33:00,
2013-09-03 19:38:00,90.9,55.2,29.32,WNW,294,0.0,0.0,30,0.00,,---,0.00,VWS V13.01,2013-09-04 00:38:00,
2013-09-03 19:43:00,90.9,55.2,29.32,WNW,294,0.0,0.0,30,0.00,,---,0.00,VWS V13.01,2013-09-04 00:43:00,
2013-09-03 19:48:00,89.1,56.2,29.32,WNW,294,0.0,0.0,33,0.00,,---,0.00,VWS V13.01,2013-09-04 00:48:00,
2013-09-03 19:53:00,89.1,56.2,29.32,WNW,294,0.0,0.0,33,0.00,,---,0.00,VWS V13.01,2013-09-04 00:53:00,
2013-09-03 19:58:00,89.1,56.2,29.32,WNW,293,0.0,0.0,33,0.00,,---,0.00,VWS V13.01,2013-09-04 00:58:00,
2013-09-03 20:03:00,88.2,56.3,29.32,WNW,293,0.0,0.0,34,0.00,,---,0.00,VWS V13.01,2013-09-04 01:03:00,
2013-09-03 20:08:00,87.6,56.6,29.29,WNW,294,0.0,0.0,35,0.00,,---,0.00,VWS V13.01,2013-09-04 01:08:00,
2013-09-03 20:13:00,87.4,57.2,29.29,WNW,293,0.0,0.0,36,0.00,,---,0.00,VWS V13.01,2013-09-04 01:13:00,
2013-09-03 20:18:00,87.1,57.7,29.29,WNW,294,0.0,0.0,37,0.00,,---,0.00,VWS V13.01,2013-09-04 01:18:00,
2013-09-03 20:23:00,87.1,57.7,29.29,WNW,294,0.0,0.0,37,0.00,,---,0.00,VWS V13.01,2013-09-04 01:23:00,
2013-09-03 20:28:00,86.7,56.6,29.29,WNW,294,0.0,0.0,36,0.00,,---,0.00,VWS V13.01,2013-09-04 01:28:00,
2013-09-03 20:33:00,86.7,56.6,29.29,WNW,293,0.0,0.0,36,0.00,,---,0.00,VWS V13.01,2013-09-04 01:33:00,
2013-09-03 20:37:00,86.7,56.6,29.29,WNW,293,0.0,0.0,36,0.00,,---,0.00,VWS V13.01,2013-09-04 01:37:00,
2013-09-03 20:42:00,86.2,56.1,29.29,WNW,294,0.0,0.0,36,0.00,,---,0.00,VWS V13.01,2013-09-04 01:42:00,